Location: Altmatt
(47.1333°N, 8.7000°E)
Time: 17:32:59
(UTC+00:00)

BREEZE-M DEB (TANK) - Pass Details

Date: 13 July 2020
Orbit: 328 x 12049 km, 49.6° (Epoch: 13 August)

Event Time Altitude Azimuth Distance (km) Brightness Sun altitude
Rises 21:20:22 0° 286° (WNW) 4,642 7.6 -15.2°
Reaches altitude 10° 21:24:40 10° 287° (WNW) 2,615 6.2 -15.5°
Maximum altitude 21:29:36 81° 15° (NNE) 475 1.8 -16.0°
Enters shadow 21:30:49 30° 100° (E) 742 2.4 -16.1°
